Home > Weather > Hanoi > Past weeks

Flag for Vietnam Weather for the Past 2 Weeks in Hanoi, Vietnam

Now
72 °F

Passing clouds.


Feels Like: 75 °F
Forecast: 57 / 64 °F
Wind: 17 mph from Northeast

Location: Ha Noi Airport

Current Time: Feb 14, 2016 at 9:43:37 PM

Latest Report: Feb 14, 2016 at 9:00 PM


Visibility: 5 mi

Pressure: 30.01 "Hg

Humidity: 65%

Dew point: 59 °F

Location of HanoiLocation

Historic Weather in Hanoi — Graph

°F

Hanoi Temperature Yesterday

Maximum temperature yesterday: 91 °F (at 3:00 PM)
Minimum temperature yesterday: 63 °F (at 4:30 AM)
Average temperature yesterday: 75 °F

High & Low Weather Summary for the Past Weeks

 TemperatureHumidityPressure
High91 °F (Feb 13, 3:00 PM)100% (Jan 30, 8:00 PM)30.45 "Hg (Jan 30, 8:00 PM)
Low48 °F (Feb 7, 4:00 AM)27% (Feb 8, 3:30 PM)29.68 "Hg (Feb 12, 3:00 PM)
Average62 °F74%30.08 "Hg
* Reported Jan 30 8:00 PM — Feb 14 8:30 PM, Hanoi, Weather by CustomWeather, © 2016

Note: Actual official high and low records may vary slightly from our data, if they occured in-between our weather recording intervals... More about our weather records

Advertising

Hanoi Weather History for the Previous 24 Hours

 ConditionsComfort  
Time TempWeatherWind HumidityBarometerVisibility
8:30 PM
Sun, Feb 14
72 °FPassing clouds.18 mph69%29.98 "Hg5 mi
8:00 PM73 °FPassing clouds.14 mph69%29.98 "Hg4 mi
7:30 PM75 °FPassing clouds.15 mph65%29.95 "Hg5 mi
7:00 PM77 °FPassing clouds.13 mph65%29.92 "Hg4 mi
6:30 PM77 °FPassing clouds.10 mph65%29.89 "Hg4 mi
6:00 PM79 °FPassing clouds.9 mph61%29.86 "Hg3 mi
5:30 PM81 °FHaze.9 mph62%29.86 "Hg3 mi
5:00 PM82 °FHaze.10 mph58%29.83 "Hg3 mi
4:30 PM82 °FClear.13 mph58%29.83 "Hg4 mi
4:00 PM84 °FClear.13 mph55%29.83 "Hg5 mi
3:30 PM84 °FSunny.14 mph51%29.80 "Hg10 mi
3:00 PM86 °FSunny.12 mph52%29.80 "Hg10 mi
2:30 PM84 °FSunny.13 mph51%29.83 "Hg10 mi
2:00 PM84 °FSunny.14 mph51%29.83 "Hg10 mi
1:30 PM84 °FSunny.14 mph48%29.83 "Hg10 mi
1:00 PM82 °FClear.10 mph55%29.86 "Hg3 mi
12:30 PM82 °FClear.12 mph55%29.86 "Hg4 mi
12:00 PM81 °FHaze.10 mph58%29.89 "Hg3 mi
11:30 AM81 °FClear.9 mph58%29.89 "Hg4 mi
11:00 AM79 °FHaze.7 mph58%29.92 "Hg2 mi
10:30 AM79 °FHaze.7 mph70%29.92 "Hg2 mi
10:00 AM77 °FFog.3 mph69%29.92 "Hg2 mi
9:30 AM75 °FFog.2 mph69%29.92 "Hg2 mi
9:00 AM73 °FFog.3 mph78%29.89 "Hg2 mi
8:30 AM70 °FFog.5 mph83%29.89 "Hg2 mi
8:00 AM68 °FFog.6 mph88%29.86 "Hg2 mi
7:30 AM66 °FFog.2 mph94%29.86 "Hg1 mi
7:00 AM64 °FFog.2 mph94%29.83 "Hg1 mi
6:30 AM64 °FFog.3 mph94%29.80 "Hg2 mi
6:00 AM64 °FFog.6 mph94%29.80 "Hg2 mi
5:30 AM66 °FFog.2 mph88%29.77 "Hg3 mi
4:30 AM68 °FFog.6 mph88%29.77 "Hg3 mi
4:00 AM68 °FFog.6 mph88%29.77 "Hg3 mi
3:30 AM68 °FFog.6 mph88%29.77 "Hg3 mi
3:00 AM68 °FFog.7 mph88%29.77 "Hg2 mi
2:30 AM70 °FFog.7 mph88%29.74 "Hg2 mi
2:00 AM70 °FFog.7 mph88%29.77 "Hg3 mi
1:30 AM70 °FFog.6 mph88%29.77 "Hg2 mi
1:00 AM70 °FFog.7 mph88%29.77 "Hg3 mi
12:30 AM70 °FFog.7 mph94%29.77 "Hg3 mi
12:00 AM72 °FFog.7 mph88%29.77 "Hg3 mi
11:30 PM
Sat, Feb 13
72 °FFog.8 mph88%29.77 "Hg3 mi
11:00 PM73 °FFog.7 mph83%29.77 "Hg3 mi
10:30 PM73 °FFog.6 mph83%29.77 "Hg3 mi
10:00 PM75 °FFog.7 mph74%29.77 "Hg3 mi
9:30 PM77 °FHaze.7 mph69%29.77 "Hg3 mi
9:00 PM77 °FClear.5 mph65%29.77 "Hg3 mi
Weather by CustomWeather, © 2016

See weather overviewHow to use our weather pages